Springfield, CO

5:39 PM MST on February 19, 2018 (GMT -0700)
Springfield

Weather History for KSPD - July, 2013

Change the Weather History Date:

Sunday, July 7, 2013

  Actual Average Record
Temperature  
Mean Temperature 82 °F -  
Max Temperature 97 °F 91 °F 102 °F (2001)
Min Temperature 67 °F 61 °F 54 °F (2015)
Degree Days  
Heating Degree Days 0 0  
Month to date heating degree days 0 0  
Since 1 June heating degree days 19 21  
Since 1 July heating degree days 0 0  
Cooling Degree Days 17 11  
Month to date cooling degree days 68 75  
Year to date cooling degree days 536 337  
Since 1 June cooling degree days 419 283  
Growing Degree Days 30 (Base 50)    
Moisture  
Dew Point 57 °F    
Average Humidity 46    
Maximum Humidity 68    
Minimum Humidity 24    
Precipitation  
Precipitation 1.11 in 0.09 in 2.48 in (1998)
Month to date precipitation 1.19 0.63  
Year to date precipitation 4.91  
Sea Level Pressure  
Sea Level Pressure 29.82 in    
Wind  
Wind Speed 8 mph (WSW)    
Max Wind Speed 28 mph    
Max Gust Speed 39 mph    
T = Trace of Precipitation, MM = Missing Value Source: NWS Daily Summary

Daily Weather History Graph

Daily Weather History Graph

Search for Another Location

Airport or City:

Trip Planner

Search our weather history database for the weather conditions in past years. The results will help you decide how hot, cold, wet, or windy it might be!

Date:

Astronomy

Jul. 07, 2013 Rise Set
Actual Time 5:36 AM MDT 8:13 PM MDT
Civil Twilight 5:06 AM MDT 8:44 PM MDT
Nautical Twilight 4:28 AM MDT 9:22 PM MDT
Astronomical Twilight 3:45 AM MDT 10:04 PM MDT
Moon 5:13 AM MDT (7/7) 7:40 PM MDT (7/7)
Length of Visible Light 15h 37m
Length of Day
14h 36m
Waning Crescent, 0% of the Moon is Illuminated
Jul 7
Waning Crescent
Jul 8
New
Jul 15
First Quarter
Jul 22
Full
Jul 29
Last Quarter

Hourly Weather History & Observations

Time (MDT) Temp. Heat Index Dew Point Humidity Pressure Visibility Wind Dir Wind Speed Gust Speed Precip Events Conditions
12:56 AM 73.0 °F - 57.0 °F 57% 29.80 in - SSW 5.8 mph - N/A   Unknown
1:56 AM 71.1 °F - 57.0 °F 61% 29.79 in - WSW 3.5 mph - N/A   Unknown
2:56 AM 69.1 °F - 57.9 °F 68% 29.78 in - WSW 5.8 mph - N/A   Unknown
3:56 AM 69.1 °F - 57.0 °F 65% 29.77 in - WSW 5.8 mph - N/A   Unknown
4:56 AM 68.0 °F - 57.0 °F 68% 29.77 in - Calm Calm - N/A   Unknown
5:56 AM 69.1 °F - 57.9 °F 68% 29.79 in - Calm Calm - N/A   Unknown
6:56 AM 72.0 °F - 59.0 °F 64% 29.80 in - Calm Calm - N/A   Unknown
7:56 AM 78.1 °F - 57.9 °F 50% 29.80 in - WNW 6.9 mph - N/A   Unknown
8:56 AM 82.0 °F 81.7 °F 57.0 °F 42% 29.81 in - Calm Calm - N/A   Unknown
9:56 AM 84.9 °F 83.7 °F 55.9 °F 37% 29.81 in - NNE 3.5 mph - N/A   Unknown
10:56 AM 88.0 °F 85.9 °F 54.0 °F 31% 29.81 in - Calm Calm - N/A   Unknown
11:56 AM 91.0 °F - 52.0 °F 26% 29.80 in - Variable 5.8 mph - N/A   Unknown
12:56 PM 93.9 °F - 52.0 °F 24% 29.79 in - SSW 11.5 mph 20.7 mph N/A   Unknown
1:56 PM 91.9 °F - 52.0 °F 26% 29.78 in - SW 16.1 mph 23.0 mph N/A   Unknown
2:07 PM 78.8 °F - 60.8 °F 54% 30.01 in - NW 17.3 mph 25.3 mph 0.01 in   Unknown
2:56 PM 75.9 °F - 61.0 °F 60% 29.82 in - NW 16.1 mph 27.6 mph 0.03 in   Unknown
3:56 PM 77.0 °F - 64.9 °F 66% 29.81 in - North 10.4 mph - 0.07 in   Unknown
6:56 PM 75.0 °F - 62.1 °F 64% 29.81 in - South 13.8 mph - 0.01 in   Unknown
7:56 PM 75.9 °F - 60.1 °F 58% 29.79 in - SSW 11.5 mph - N/A   Unknown
8:56 PM 73.9 °F - 57.9 °F 57% 29.84 in - SSW 8.1 mph - N/A   Unknown
9:56 PM 73.9 °F - 57.0 °F 55% 29.86 in - SSW 10.4 mph - N/A   Unknown
10:56 PM 75.0 °F - 57.0 °F 53% 29.87 in - SW 9.2 mph - N/A   Unknown
11:56 PM 75.9 °F - 54.0 °F 46% 29.86 in - SW 11.5 mph - N/A   Unknown